MST,Max TemperatureF,Mean TemperatureF,Min TemperatureF,Max Dew PointF,MeanDew PointF,Min DewpointF,Max Humidity, Mean Humidity, Min Humidity, Max Sea Level PressureIn, Mean Sea Level PressureIn, Min Sea Level PressureIn, Max VisibilityMiles, Mean VisibilityMiles, Min VisibilityMiles, Max Wind SpeedMPH, Mean Wind SpeedMPH, Max Gust SpeedMPH,PrecipitationIn, CloudCover, Events, WindDirDegrees
2012-5-1,95,82,68,53,42,27,57,33,9,29.80,29.74,29.67,10,10,10,20,11,26,0.00,1,,169
2012-5-2,88,77,65,55,50,44,68,45,22,29.83,29.77,29.72,10,10,10,16,8,20,0.00,3,,194
2012-5-3,91,78,65,54,46,32,56,36,15,29.91,29.85,29.80,10,10,10,13,6,20,0.00,2,,221
2012-5-4,95,79,62,46,36,17,46,26,6,29.94,29.87,29.81,10,10,10,13,6,16,0.00,0,,240
2012-5-5,94,80,66,41,31,19,37,22,7,29.89,29.84,29.78,10,10,10,13,5,17,0.00,0,,268
2012-5-6,95,78,61,53,35,19,53,30,7,29.87,29.81,29.76,10,10,10,13,4,15,0.00,0,,215
2012-5-7,96,80,63,48,25,1,48,26,3,29.86,29.80,29.74,10,10,10,20,7,25,0.00,0,,301
2012-5-8,92,81,69,33,18,9,23,14,5,29.82,29.78,29.75,10,10,10,28,6,37,0.00,2,,321
2012-5-9,101,83,65,40,32,23,31,19,7,29.79,29.75,29.69,10,10,6,0,0,0,0.00,1,,86
2012-5-10,99,85,70,45,37,27,35,22,8,29.82,29.76,29.66,10,8,2,22,7,24,0.00,1,,158
2012-5-11,98,83,67,47,34,21,35,21,7,29.83,29.77,29.71,10,10,10,14,6,16,0.00,0,,197
2012-5-12,101,85,68,39,32,22,29,19,8,29.94,29.88,29.83,10,10,10,10,4,15,0.00,0,,210
2012-5-13,105,87,68,43,36,25,33,20,7,29.91,29.84,29.77,10,10,10,9,4,14,0.00,0,,245
2012-5-14,109,91,72,42,28,10,29,16,3,29.86,29.78,29.69,10,10,10,18,5,23,0.00,0,,54
2012-5-15,105,90,75,40,24,6,26,15,3,29.77,29.71,29.64,10,10,10,13,6,16,0.00,0,,294
2012-5-16,105,87,69,50,33,16,51,28,4,29.79,29.72,29.66,10,10,10,10,4,14,0.00,0,,236
2012-5-17,105,89,72,52,41,29,41,25,8,29.76,29.69,29.61,10,10,10,21,11,25,0.00,0,,182
2012-5-18,98,84,70,58,36,19,61,34,6,29.72,29.67,29.61,10,10,10,22,9,45,0.00,0,,246
2012-5-19,99,84,68,50,38,23,44,26,7,29.82,29.76,29.71,10,10,10,9,3,16,0.00,0,,184
2012-5-20,105,89,72,48,37,21,35,21,6,29.85,29.79,29.73,10,10,10,10,4,21,0.00,0,,264
2012-5-21,108,91,73,42,34,25,33,19,5,29.83,29.77,29.71,10,10,10,12,4,15,0.00,0,,260
2012-5-22,108,90,72,42,28,7,31,17,2,29.77,29.70,29.60,10,10,10,16,6,23,0.00,2,,233
2012-5-23,104,89,74,57,46,37,44,28,11,29.62,29.55,29.47,10,10,10,23,10,26,0.00,0,,185
2012-5-24,93,83,73,58,53,44,57,39,20,29.60,29.53,29.46,10,10,10,28,16,32,0.00,0,,161
2012-5-25,89,77,64,58,47,35,66,45,23,29.72,29.61,29.52,10,8,2,28,16,32,0.00,0,,199
2012-5-26,82,70,57,37,32,25,40,27,13,29.94,29.84,29.73,10,8,2,30,12,40,0.00,2,,297
2012-5-27,90,76,62,45,33,23,48,29,9,29.96,29.90,29.85,10,10,10,16,7,21,0.00,0,,312
2012-5-28,95,79,63,39,29,18,37,22,6,29.90,29.84,29.78,10,10,10,13,4,16,0.00,0,,205
2012-5-29,100,83,66,41,30,18,37,21,5,29.90,29.84,29.79,10,10,10,16,6,20,0.00,0,,187
2012-5-30,102,86,69,43,30,12,24,14,4,29.89,29.81,29.74,10,10,10,12,4,16,0.00,0,,254
2012-5-31,113,92,70,49,36,14,47,25,3,29.77,29.69,29.60,10,10,10,14,5,21,0.00,0,,269